Waarnemingen

Advertentie
Mijn weer
Lichtenhain-Mittelndorf, Duitsland (10591): temperatuur & dauwpunt: 18.11.2017 17:00:00 - 24.11.2017 17:00:00 (CET)Lichtenhain-Mittelndorf, Duitsland (10591): temperatuur 5cm & temperatuur -5cm: 18.11.2017 17:00:00 - 24.11.2017 17:00:00 (CET)Lichtenhain-Mittelndorf, Duitsland (10591): temperatuur -20cm & temperatuur -100cm: 18.11.2017 17:00:00 - 24.11.2017 17:00:00 (CET)Lichtenhain-Mittelndorf, Duitsland (10591): windsnelheid & windstoten: 18.11.2017 17:00:00 - 24.11.2017 17:00:00 (CET)Lichtenhain-Mittelndorf, Duitsland (10591): windrichting: 18.11.2017 17:00:00 - 24.11.2017 17:00:00 (CET)Lichtenhain-Mittelndorf, Duitsland (10591): luchtdruk: 18.11.2017 17:00:00 - 24.11.2017 17:00:00 (CET)Lichtenhain-Mittelndorf, Duitsland (10591): zicht: 18.11.2017 17:00:00 - 24.11.2017 17:00:00 (CET)Lichtenhain-Mittelndorf, Duitsland (10591): Zonneschijnduur: 18.11.2017 17:00:00 - 24.11.2017 17:00:00 (CET)Lichtenhain-Mittelndorf, Duitsland (10591): neerslag: 18.11.2017 17:00:00 - 24.11.2017 17:00:00 (CET)
Datum & Tijd tt [°C] td [°C] tt 5cm [°C] tt -5cm [°C] tt -20cm [°C] tt -100cm [°C] ff [km/u] ff [kn] fx [km/u] fx [kn] dd ppp [hPa] vv [km] sd [min] rr [mm]
24.11.2017 17:00:00 7,7 3,5 7,2 5,9 5,6 8,0 23 12 36 20 ZZO 1012,6 12 0 0,0
24.11.2017 16:00:00 8,1 3,3 7,7 6,3 5,5 8,0 22 12 34 18 Z 1012,5 13 10 0,0
24.11.2017 15:00:00 8,6 3,3 8,1 6,7 5,3 8,0 20 11 31 17 ZO 1011,9 15 0 0,0
24.11.2017 14:00:00 8,1 3,2 7,8 6,7 5,0 8,0 23 12 45 24 ZZO 1012,0 14 14 0,0
24.11.2017 13:00:00 7,5 3,0 7,4 6,3 4,7 8,0 29 16 41 22 ZZO 1012,7 13 0 0,0
24.11.2017 12:00:00 7,1 2,8 7,2 6,3 4,4 8,0 23 13 47 26 ZZO 1013,2 13 12 0,0
24.11.2017 11:00:00 6,9 2,6 7,3 6,2 4,1 8,0 30 16 45 25 ZZO 1013,5 12 55 0,0
24.11.2017 10:00:00 5,5 2,0 5,8 4,0 4,1 8,0 24 13 43 23 ZZO 1014,0 10 43 0,0
24.11.2017 09:00:00 4,4 1,5 3,9 2,9 4,1 8,0 24 13 45 24 ZZO 1014,8 10 32 0,0
24.11.2017 08:00:00 4,7 1,8 3,7 2,8 4,2 8,0 16 9 31 17 ZZO 1014,9 10 0 0,0
24.11.2017 07:00:00 5,0 2,0 4,3 3,5 4,2 8,0 13 7 34 18 ZO 1014,9 10 0 0,0
24.11.2017 06:00:00 5,2 2,1 4,7 3,3 4,3 8,0 11 6 30 16 ZZO 1014,9 10 0 0,0
24.11.2017 05:00:00 5,0 2,0 4,1 3,4 4,3 8,0 19 10 30 16 ZZO 1015,2 8 0 0,0
24.11.2017 04:00:00 5,2 2,2 4,7 3,6 4,3 8,0 12 7 27 14 ZZO 1015,4 8 0 0,0
24.11.2017 03:00:00 5,5 2,5 5,0 3,7 4,3 8,0 13 7 31 17 ZZO 1015,3 8 0 0,0
24.11.2017 02:00:00 5,7 2,4 5,4 3,5 4,3 8,0 14 8 31 17 ZZO 1015,3 8 0 0,0
24.11.2017 01:00:00 5,2 2,4 4,2 3,1 4,4 8,0 22 12 35 19 ZZO 1015,0 8 0 0,0
24.11.2017 00:00:00 6,2 2,8 5,1 3,3 4,5 8,0 20 11 35 19 ZZO 1014,7 11 0 0,0
23.11.2017 23:00:00 6,3 2,7 5,2 3,5 4,5 8,0 24 13 36 20 ZZO 1014,4 13 0 0,0
23.11.2017 22:00:00 6,9 2,8 5,8 3,6 4,6 8,0 22 12 36 19 ZZO 1014,0 15 0 0,0
23.11.2017 21:00:00 6,9 2,7 5,8 3,6 4,7 8,0 24 13 41 22 ZZO 1013,9 16 0 0,0
23.11.2017 20:00:00 6,8 2,7 5,8 3,7 4,8 8,0 27 14 36 20 Z 1013,3 13 0 0,0
23.11.2017 19:00:00 6,5 2,4 5,4 3,7 4,9 8,0 21 11 32 17 ZO 1013,6 14 0 0,0
23.11.2017 18:00:00 6,4 2,1 5,5 4,0 5,0 8,0 26 14 47 26 Z 1013,0 12 0 0,0
23.11.2017 17:00:00 6,5 1,8 5,9 4,5 5,0 8,0 29 16 42 23 Z 1012,2 15 0 0,0
23.11.2017 16:00:00 6,6 1,7 6,1 4,7 5,0 8,0 25 14 43 23 Z 1012,1 17 0 0,0
23.11.2017 15:00:00 6,4 1,8 6,0 5,2 4,9 8,0 27 15 44 24 ZZO 1011,7 17 0 0,0
23.11.2017 14:00:00 6,2 2,3 5,9 5,8 4,7 7,9 27 15 39 21 ZZO 1011,7 14 0 0,0
23.11.2017 13:00:00 6,3 2,9 6,2 6,0 4,4 7,9 14 8 31 17 ZZO 1012,2 15 4 0,0
23.11.2017 12:00:00 5,9 2,5 6,1 5,9 4,0 7,9 21 12 29 16 ZZO 1012,0 17 13 0,0
23.11.2017 11:00:00 5,9 2,0 5,9 5,4 3,6 7,9 16 9 30 16 Z 1012,5 18 40 0,0
23.11.2017 10:00:00 6,2 1,9 6,2 3,6 3,5 7,9 19 10 30 16 ZZO 1011,7 18 60 0,0
23.11.2017 09:00:00 4,9 1,7 3,7 1,8 3,6 7,9 12 7 39 21 ZO 1012,1 21 35 0,0
23.11.2017 08:00:00 3,7 1,2 2,4 1,2 3,8 7,9 14 8 23 13 ZZO 1012,4 18 0 0,0
23.11.2017 07:00:00 4,0 1,7 1,5 1,5 4,0 7,9 7 4 22 12 ZO 1012,0 15 0 0,0
23.11.2017 06:00:00 4,2 2,0 2,5 1,9 4,1 7,9 13 7 35 19 ZO 1011,7 13 0 0,0
23.11.2017 05:00:00 4,9 2,3 3,7 2,0 4,3 7,9 18 10 28 15 ZO 1011,7 13 0 0,0
23.11.2017 04:00:00 5,1 2,6 3,6 2,2 4,5 7,9 11 6 23 13 ZO 1011,6 13 0 0,0
23.11.2017 03:00:00 5,2 2,7 3,8 2,5 4,7 7,9 13 7 29 16 ZZO 1012,0 15 0 0,0
23.11.2017 02:00:00 5,2 2,9 3,7 2,7 4,9 7,9 11 6 28 15 OZO 1011,8 14 0 0,0
23.11.2017 01:00:00 6,1 3,2 4,8 3,0 5,0 7,9 14 8 25 13 ZO 1011,8 16 0 0,0
23.11.2017 00:00:00 6,4 3,5 5,1 3,1 5,3 7,9 18 10 24 13 ZO 1011,8 17 0 0,0
22.11.2017 23:00:00 6,1 3,5 4,6 3,4 5,5 7,9 13 7 20 11 ZO 1012,1 17 0 0,0
22.11.2017 22:00:00 6,6 3,7 5,0 3,7 5,7 7,9 13 7 24 13 ZZO 1011,9 17 0 0,0
22.11.2017 21:00:00 7,0 3,9 5,3 4,0 5,9 7,9 10 5 20 11 ZO 1012,0 17 0 0,0
22.11.2017 20:00:00 6,7 3,9 5,3 4,5 6,2 7,9 13 7 19 11 ZZO 1011,9 16 0 0,0
22.11.2017 19:00:00 7,0 3,8 5,7 5,0 6,4 7,9 12 6 24 13 ZZO 1011,8 19 0 0,0
22.11.2017 18:00:00 7,4 4,1 6,4 5,7 6,5 7,9 14 8 22 12 Z 1011,9 24 0 0,0
22.11.2017 17:00:00 7,6 4,1 6,9 6,4 6,6 7,9 15 8 24 13 Z 1011,6 20 0 0,0
22.11.2017 16:00:00 7,6 4,5 7,1 7,0 6,5 7,9 11 6 21 12 Z 1011,8 23 0 0,0
22.11.2017 15:00:00 7,9 4,9 7,6 7,9 6,3 7,9 11 6 16 9 ZZO 1011,6 25 0 0,0
22.11.2017 14:00:00 8,1 5,9 7,9 8,2 6,1 7,9 8 4 10 5 ZZO 1011,6 27 0 0,0
22.11.2017 13:00:00 7,8 5,6 7,9 7,7 5,9 7,9 7 4 20 11 Z 1012,1 23 0 0,0
22.11.2017 12:00:00 7,3 5,2 7,2 7,3 5,7 7,9 8 4 15 8 Z 1011,9 18 0 0,0
22.11.2017 11:00:00 7,3 5,5 7,5 7,6 5,5 7,9 7 4 13 7 ZZO 1012,0 15 1 0,0
22.11.2017 10:00:00 6,7 5,5 7,3 6,3 5,4 7,9 9 5 13 7 ZZO 1011,6 8 1 0,0
22.11.2017 09:00:00 6,2 4,7 6,1 5,4 5,4 7,9 4 2 18 10 OZO 1011,2 10 0 0,0
22.11.2017 08:00:00 6,0 4,3 4,9 5,2 5,4 7,9 13 7 30 16 Z 1010,8 20 0 0,0
22.11.2017 07:00:00 6,3 4,6 5,8 5,7 5,4 7,9 20 11 29 16 W 1010,9 22 0 0,0
22.11.2017 06:00:00 6,9 5,8 6,4 5,8 5,4 7,9 10 5 14 8 ZW 1010,4 23 0 0,0
22.11.2017 05:00:00 6,8 6,3 6,4 5,9 5,3 8,0 6 3 12 6 Z 1010,9 4,7 0 0,0
22.11.2017 04:00:00 7,0 6,3 6,7 5,9 5,3 8,0 9 5 12 7 ZZO 1011,1 12 0 0,0
22.11.2017 03:00:00 7,1 6,6 6,8 5,8 5,2 8,0 6 3 11 6 ZZO 1011,0 12 0 0,0
22.11.2017 02:00:00 7,0 6,7 6,8 5,8 5,1 8,0 7 4 16 8 ZZW 1011,0 2,1 0 0,2
22.11.2017 01:00:00 7,0 6,7 6,7 5,8 5,0 8,0 7 4 18 10 ZZW 1011,0 0,4 0 0,6
22.11.2017 00:00:00 7,0 6,5 6,7 5,7 4,9 8,0 8 5 19 10 Z 1011,1 4,9 0 0,4
21.11.2017 23:00:00 6,6 6,3 6,4 5,6 4,8 8,0 12 6 16 9 ZZO 1011,0 1,5 0 0,6
21.11.2017 22:00:00 6,9 6,5 6,7 5,6 4,7 8,0 8 4 11 6 Z 1010,8 4,2 0 0,9
21.11.2017 21:00:00 6,9 6,6 6,6 5,5 4,6 8,0 8 4 13 7 ZZW 1011,2 1,4 0 0,6
21.11.2017 20:00:00 6,9 6,6 6,6 5,4 4,4 8,0 9 5 15 8 ZZW 1011,1 0,4 0 0,5
21.11.2017 19:00:00 6,8 6,5 6,5 5,2 4,3 8,1 9 5 15 8 ZW 1011,3 0,7 0 0,4
21.11.2017 18:00:00 6,7 6,4 6,4 5,0 4,2 8,1 8 4 13 7 ZW 1011,3 0,2 0 0,7
21.11.2017 17:00:00 6,3 5,9 6,0 4,9 4,0 8,1 9 5 15 8 ZW 1011,3 4,0 0 0,1
21.11.2017 16:00:00 6,1 5,7 5,9 4,8 3,9 8,1 9 5 14 8 ZW 1011,0 4,4 0 0,2
21.11.2017 15:00:00 5,6 5,2 5,5 4,6 3,7 8,1 8 4 14 8 ZZW 1011,1 2,4 0 0,6
21.11.2017 14:00:00 5,3 4,9 5,3 4,4 3,5 8,1 8 4 22 12 ZW 1011,2 0,9 0 0,3
21.11.2017 13:00:00 4,3 3,9 4,5 4,0 3,3 8,1 6 3 14 7 Z 1011,3 1,7 0 0,5
21.11.2017 12:00:00 3,5 3,2 3,6 3,4 3,2 8,1 9 5 15 8 ZO 1011,6 2,2 0 0,7
21.11.2017 11:00:00 2,9 2,5 3,0 3,0 3,1 8,1 6 4 18 10 ZO 1011,8 1,2 0 1,7
21.11.2017 10:00:00 2,6 2,3 2,7 2,6 3,0 8,1 8 4 16 9 ZZO 1011,9 1,5 0 2,0
21.11.2017 09:00:00 2,1 1,7 2,2 2,2 3,0 8,2 8 5 19 10 ZO 1011,9 1,1 0 1,2
21.11.2017 08:00:00 1,7 1,1 1,7 2,0 3,0 8,2 11 6 18 10 ZZO 1011,8 1,2 0 0,9
21.11.2017 07:00:00 1,5 0,8 1,5 2,0 3,0 8,2 10 5 16 8 ZZO 1011,8 6 0 0,8
21.11.2017 06:00:00 1,4 0,8 1,4 1,9 3,1 8,2 9 5 17 9 ZZO 1012,3 3,7 0 1,0
21.11.2017 05:00:00 1,4 0,8 1,4 1,9 3,1 8,2 8 4 21 11 Z 1012,4 2,0 0 0,2
21.11.2017 04:00:00 1,3 0,5 1,2 1,8 3,1 8,2 14 7 21 11 Z 1012,7 9 0 0,1
21.11.2017 03:00:00 1,3 0,5 1,2 1,8 3,2 8,2 15 8 21 12 Z 1013,0 7 0 0,0
21.11.2017 02:00:00 1,2 0,4 1,1 1,9 3,3 8,2 16 8 21 11 ZZO 1013,5 8 0 0,0
21.11.2017 01:00:00 1,2 0,4 1,1 1,9 3,3 8,2 16 9 22 12 ZZO 1013,8 8 0 0,2
21.11.2017 00:00:00 1,3 0,5 1,2 2,0 3,4 8,2 10 5 14 8 ZZO 1014,5 6 0 0,3
20.11.2017 23:00:00 1,6 0,6 1,4 2,2 3,4 8,2 10 5 14 8 Z 1015,1 6 0 0,1
20.11.2017 22:00:00 1,9 0,2 1,5 2,2 3,5 8,3 5 3 9 5 Z 1015,4 23 0 0,0
20.11.2017 21:00:00 1,8 1,0 1,6 2,2 3,6 8,3 5 3 23 12 Z 1016,1 8 0 0,0
20.11.2017 20:00:00 2,0 0,6 1,5 2,4 3,6 8,3 13 7 22 12 W 1016,0 9 0 0,1
20.11.2017 19:00:00 2,4 0,8 2,0 2,6 3,7 8,3 14 8 25 14 W 1016,4 15 0 0,0
20.11.2017 18:00:00 2,6 1,2 2,3 2,8 3,7 8,3 16 9 29 16 W 1016,4 21 0 0,4
20.11.2017 17:00:00 2,5 1,4 2,3 3,1 3,7 8,3 21 11 32 18 W 1016,4 2,5 0 0,5
20.11.2017 16:00:00 3,2 2,4 3,0 3,3 3,7 8,3 14 8 35 19 W 1016,1 9 0 0,4
20.11.2017 15:00:00 2,8 2,1 2,8 3,4 3,7 8,3 15 8 28 15 W 1016,4 5 0 0,9
20.11.2017 14:00:00 2,5 1,7 2,7 3,5 3,6 8,3 16 8 26 14 W 1016,6 2,6 0 1,3
20.11.2017 13:00:00 2,9 1,7 2,9 3,8 3,4 8,3 20 11 32 17 W 1016,6 6 0 0,4
20.11.2017 12:00:00 3,5 1,8 3,5 3,9 3,2 8,4 18 10 37 20 W 1016,8 27 1 0,1
20.11.2017 11:00:00 3,5 1,9 3,8 3,6 3,0 8,4 21 11 40 21 WNW 1017,0 20 3 0,0
20.11.2017 10:00:00 2,7 1,4 2,5 2,7 2,9 8,4 22 12 39 21 WNW 1017,2 19 4 0,1
20.11.2017 09:00:00 2,1 1,3 2,0 2,1 2,9 8,4 22 12 39 21 W 1017,1 13 0 0,9
20.11.2017 08:00:00 2,6 1,3 2,2 2,2 2,8 8,4 26 14 42 23 W 1016,5 22 0 0,0
20.11.2017 07:00:00 2,8 1,8 2,4 1,9 2,8 8,4 21 11 32 17 WNW 1015,9 19 0 1,0
20.11.2017 06:00:00 2,3 1,5 1,8 1,5 2,9 8,4 16 9 24 13 W 1015,7 4,9 0 0,4
20.11.2017 05:00:00 2,2 0,3 1,2 1,0 3,0 8,4 16 9 34 18 W 1015,7 41 0 0,0
20.11.2017 04:00:00 2,2 -0,2 1,3 1,1 3,1 8,4 18 10 39 21 WNW 1015,4 46 0 0,0
20.11.2017 03:00:00 2,4 -0,3 1,3 1,3 3,2 8,4 22 12 41 22 WNW 1015,0 50 0 0,0
20.11.2017 02:00:00 2,3 0,0 1,2 1,2 3,4 8,5 21 11 45 24 NW 1014,3 45 0 0,0
20.11.2017 01:00:00 2,7 0,2 1,5 1,9 3,5 8,5 29 16 51 27 WNW 1013,4 51 0 0,0
20.11.2017 00:00:00 3,2 0,9 2,2 2,5 3,5 8,5 32 17 49 26 WNW 1012,6 43 0 0,1
19.11.2017 23:00:00 3,4 1,9 2,8 2,8 3,5 8,5 31 17 48 26 W 1011,8 8 0 0,0
19.11.2017 22:00:00 2,9 1,7 2,5 2,7 3,5 8,5 23 12 48 26 WNW 1011,5 28 0 1,4
19.11.2017 21:00:00 3,2 1,9 2,8 2,9 3,5 8,5 25 14 64 35 W 1010,9 5 0 1,3
19.11.2017 20:00:00 3,3 2,2 2,9 2,8 3,5 8,5 27 14 44 24 W 1010,4 9 0 1,3
19.11.2017 19:00:00 3,1 2,0 2,8 2,8 3,5 8,5 23 12 50 27 W 1010,3 6 0 0,6
19.11.2017 18:00:00 2,8 1,9 2,5 2,7 3,4 8,5 23 13 44 24 W 1010,1 6 0 1,8
19.11.2017 17:00:00 3,1 1,5 2,5 2,8 3,4 8,5 24 13 45 25 W 1009,8 3,3 0 0,3
19.11.2017 16:00:00 3,4 1,4 2,7 2,9 3,3 8,5 21 12 53 29 W 1009,8 19 0 0,5
19.11.2017 15:00:00 4,5 0,0 4,0 3,1 3,2 8,6 23 13 43 23 W 1009,2 36 0 0,0
19.11.2017 14:00:00 4,5 -0,4 4,3 3,3 3,1 8,6 29 16 45 24 W 1009,2 48 0 0,0
19.11.2017 13:00:00 4,0 -0,4 3,8 2,9 2,9 8,6 24 13 43 23 W 1009,8 49 0 0,0
19.11.2017 12:00:00 3,6 -0,5 3,4 2,5 2,8 8,6 19 10 37 20 W 1010,1 48 0 0,0
19.11.2017 11:00:00 3,1 -0,5 2,7 2,3 2,7 8,6 22 12 41 22 W 1010,4 16 0 0,0
19.11.2017 10:00:00 3,0 -0,8 2,9 1,9 2,6 8,6 22 12 36 19 W 1010,4 48 14 0,0
19.11.2017 09:00:00 2,1 -0,9 1,1 0,8 2,7 8,6 18 10 29 16 WZW 1010,6 41 8 0,0
19.11.2017 08:00:00 1,6 -1,1 0,0 0,5 2,9 8,6 16 8 29 15 WZW 1010,7 41 0 0,0
19.11.2017 07:00:00 2,0 -1,0 1,1 1,0 2,9 8,6 16 9 26 14 WZW 1010,6 37 0 0,0
19.11.2017 06:00:00 1,9 -0,9 1,1 0,9 3,1 8,6 13 7 22 12 W 1011,1 36 0 0,0
19.11.2017 05:00:00 1,7 -1,2 0,0 0,8 3,2 8,6 14 7 29 16 W 1011,4 35 0 0,0
19.11.2017 04:00:00 2,2 -0,8 1,4 1,6 3,3 8,6 17 9 25 13 WZW 1011,6 35 0 0,0
19.11.2017 03:00:00 2,1 0,1 1,3 1,7 3,3 8,6 13 7 26 14 WZW 1012,2 16 0 0,0
19.11.2017 02:00:00 2,2 0,1 1,1 1,8 3,4 8,7 15 8 25 14 W 1012,7 10 0 0,0
19.11.2017 01:00:00 2,1 -0,1 0,6 1,6 3,5 8,7 16 9 29 16 W 1012,9 14 0 0,0
19.11.2017 00:00:00 2,7 0,1 1,9 2,2 3,5 8,7 15 8 29 16 W 1013,3 18 0 0,0
18.11.2017 23:00:00 2,8 0,1 2,0 2,2 3,6 8,7 19 10 33 18 W 1013,6 18 0 0,0
18.11.2017 22:00:00 2,5 0,2 1,9 2,2 3,6 8,7 16 9 41 22 W 1013,8 15 0 0,1
18.11.2017 21:00:00 2,5 0,2 1,8 2,2 3,7 8,7 20 11 44 24 W 1013,6 12 0 0,5
18.11.2017 20:00:00 3,3 -0,8 2,0 2,2 3,7 8,7 29 16 48 26 W 1013,6 8 0 0,0
18.11.2017 19:00:00 3,8 -1,8 3,1 2,2 3,8 8,7 19 11 38 21 WZW 1013,7 25 0 0,0
18.11.2017 18:00:00 3,4 -1,9 2,8 2,3 3,9 8,7 16 9 35 19 ZW 1014,3 22 0 0,0
18.11.2017 17:00:00 3,4 -1,8 2,7 2,6 4,0 8,7 21 11 37 20 ZW 1015,0 20 0 0,0

tt = temperatuur
td = dauwpunt
tt 5cm = temperatuur 5cm
tt -5cm = temperatuur -5cm
tt -20cm = temperatuur -20cm
tt -100cm = temperatuur -100cm
ff = windsnelheid
fx = windstoten
dd = windrichting
ppp = luchtdruk
vv = zicht
sd = Zonneschijnduur
rr = neerslag

Weerstations in de omgeving